Weather History for EKSP - January, 2013

Change the Weather History Date:

Wednesday, January 9, 2013

  Actual Average Record
Temperature  
Mean Temperature 42 °F -  
Max Temperature 44 °F 36 °F 51 °F (2007)
Min Temperature 39 °F 27 °F 17 °F (2003)
Degree Days  
Heating Degree Days 24    
Moisture  
Dew Point 42 °F    
Average Humidity 99    
Maximum Humidity 100    
Minimum Humidity 93    
Precipitation  
Precipitation 0.00 in - - ()
Sea Level Pressure  
Sea Level Pressure 29.94 in    
Wind  
Wind Speed 7 mph ()    
Max Wind Speed 14 mph    
Max Gust Speed -    
Visibility 4.1 miles    
Events Fog , Rain    
Averages and records for this station are not official NWS values.
T = Trace of Precipitation, MM = Missing Value Source: Averaged Metar Reports

Daily Weather History Graph

Daily Weather History Graph

Search for Another Location

Airport or City:

Trip Planner

Search our weather history database for the weather conditions in past years. The results will help you decide how hot, cold, wet, or windy it might be!

Date:

Astronomy

Jan. 09, 2013 Rise Set
Actual Time 8:45 AM CET 4:15 PM CET
Civil Twilight 8:00 AM CET 4:59 PM CET
Nautical Twilight 7:13 AM CET 5:46 PM CET
Astronomical Twilight 6:29 AM CET 6:30 PM CET
Moon 6:07 AM CET (1/9) 1:58 PM CET (1/9)
Length of Visible Light 8h 58m
Length of Day
7h 30m
Waning Crescent, 8% of the Moon is Illuminated
Jan 9
Waning Crescent
Jan 11
New
Jan 19
First Quarter
Jan 27
Full
Feb 3
Last Quarter

Hourly Weather History & Observations

Time (CET) Temp. Windchill Dew Point Humidity Pressure Visibility Wind Dir Wind Speed Gust Speed Precip Events Conditions
12:20 AM 42.8 °F 39.3 °F 42.8 °F 100% 30.09 in 1.5 mi South 5.8 mph - N/A   Overcast
12:50 AM 42.8 °F 40.1 °F 42.8 °F 100% 30.09 in 0.8 mi South 4.6 mph - N/A   Overcast
1:20 AM 42.8 °F 40.1 °F 42.8 °F 100% 30.09 in 0.2 mi South 4.6 mph - N/A Fog Fog
1:50 AM 42.8 °F 40.1 °F 42.8 °F 100% 30.09 in - South 4.6 mph - N/A Fog Fog
2:20 AM 42.8 °F 41.1 °F 42.8 °F 100% 30.06 in 0.8 mi South 3.5 mph - N/A   Mist
2:50 AM 42.8 °F 40.1 °F 42.8 °F 100% 30.06 in 1.1 mi South 4.6 mph - N/A   Mostly Cloudy
3:20 AM 42.8 °F 40.1 °F 42.8 °F 100% 30.06 in 0.3 mi South 4.6 mph - N/A Fog , Rain Light Drizzle
3:50 AM 42.8 °F 39.3 °F 42.8 °F 100% 30.04 in 0.2 mi South 5.8 mph - N/A Fog , Rain Light Drizzle
4:20 AM 42.8 °F 39.3 °F 42.8 °F 100% 30.04 in 1.7 mi South 5.8 mph - N/A Rain Rain
4:50 AM 42.8 °F 40.1 °F 42.8 °F 100% 30.04 in 2.2 mi South 4.6 mph - N/A Rain Light Rain
5:20 AM 42.8 °F 39.3 °F 42.8 °F 100% 30.01 in 2.2 mi South 5.8 mph - N/A Rain Light Rain
5:50 AM 42.8 °F 40.1 °F 42.8 °F 100% 30.01 in 2.5 mi South 4.6 mph - N/A Rain Light Rain
6:20 AM 42.8 °F 39.3 °F 42.8 °F 100% 30.01 in 2.5 mi South 5.8 mph - N/A Rain Light Rain
6:50 AM 42.8 °F 38.6 °F 42.8 °F 100% 29.98 in 2.5 mi SSW 6.9 mph - N/A Rain Light Rain
7:20 AM 42.8 °F 39.3 °F 42.8 °F 100% 29.98 in 2.5 mi SSW 5.8 mph - N/A Rain Light Rain
7:50 AM 42.8 °F 40.1 °F 42.8 °F 100% 29.95 in 2.5 mi SSW 4.6 mph - N/A Rain Light Rain
8:20 AM 42.8 °F 40.1 °F 42.8 °F 100% 29.95 in 2.8 mi SSW 4.6 mph - N/A Rain Light Rain
8:50 AM 42.8 °F 39.3 °F 42.8 °F 100% 29.95 in 2.8 mi SSW 5.8 mph - N/A Rain Light Rain
9:20 AM 42.8 °F 39.3 °F 42.8 °F 100% 29.95 in 2.8 mi SW 5.8 mph - N/A Rain Light Rain
9:50 AM 42.8 °F 40.1 °F 42.8 °F 100% 29.95 in 2.8 mi SW 4.6 mph - N/A Rain Rain
10:20 AM 42.8 °F 39.3 °F 42.8 °F 100% 29.95 in 2.8 mi SW 5.8 mph - N/A Rain Rain
10:50 AM 42.8 °F 40.1 °F 42.8 °F 100% 29.92 in 2.5 mi WSW 4.6 mph - N/A Rain Rain
11:20 AM 42.8 °F 38.6 °F 42.8 °F 100% 29.92 in 2.8 mi WSW 6.9 mph - N/A Rain Rain
11:50 AM 42.8 °F 37.5 °F 42.8 °F 100% 29.92 in 3.1 mi West 9.2 mph - N/A Rain Rain
12:20 PM 44.6 °F 40.2 °F 44.6 °F 100% 29.92 in 3.7 mi WNW 8.1 mph - N/A Rain Rain
12:50 PM 44.6 °F 39.7 °F 44.6 °F 100% 29.89 in 6.2 mi NW 9.2 mph - N/A Rain Light Rain
1:20 PM 44.6 °F 39.2 °F 44.6 °F 100% 29.89 in 6.2 mi NW 10.4 mph - N/A   Mostly Cloudy
1:50 PM 42.8 °F 36.6 °F 42.8 °F 100% 29.89 in 6.2 mi WNW 11.5 mph - N/A   Mostly Cloudy
2:20 PM 42.8 °F 36.6 °F 42.8 °F 100% 29.89 in 6.2 mi NW 11.5 mph - N/A   Mostly Cloudy
2:50 PM 42.8 °F 36.2 °F 42.8 °F 100% 29.89 in 6.2 mi NW 12.7 mph - N/A   Mostly Cloudy
3:20 PM 42.8 °F 37.0 °F 41.0 °F 93% 29.89 in 6.2 mi NW 10.4 mph - N/A   Mostly Cloudy
3:50 PM 42.8 °F 36.6 °F 41.0 °F 93% 29.89 in 6.2 mi WNW 11.5 mph - N/A   Mostly Cloudy
4:20 PM 42.8 °F 36.2 °F 41.0 °F 93% 29.89 in 6.2 mi WNW 12.7 mph - N/A   Mostly Cloudy
4:50 PM 42.8 °F 36.6 °F 41.0 °F 93% 29.89 in 6.2 mi WNW 11.5 mph - N/A   Mostly Cloudy
5:20 PM 41.0 °F 34.3 °F 41.0 °F 100% 29.89 in 6.2 mi WNW 11.5 mph - N/A   Mostly Cloudy
5:50 PM 41.0 °F 34.7 °F 41.0 °F 100% 29.86 in 6.2 mi WNW 10.4 mph - N/A   Mostly Cloudy
6:20 PM 41.0 °F 33.9 °F 41.0 °F 100% 29.86 in 6.2 mi WNW 12.7 mph - N/A   Mostly Cloudy
6:50 PM 41.0 °F 33.5 °F 41.0 °F 100% 29.86 in 6.2 mi WNW 13.8 mph - N/A   Mostly Cloudy
7:20 PM 41.0 °F 34.7 °F 41.0 °F 100% 29.86 in 6.2 mi WNW 10.4 mph - N/A   Mostly Cloudy
7:50 PM 41.0 °F 34.7 °F 41.0 °F 100% 29.86 in 6.2 mi WNW 10.4 mph - N/A   Mostly Cloudy
8:20 PM 41.0 °F 34.7 °F 41.0 °F 100% 29.86 in 6.2 mi WNW 10.4 mph - N/A   Mostly Cloudy
8:50 PM 41.0 °F 34.3 °F 41.0 °F 100% 29.86 in 6.2 mi WNW 11.5 mph - N/A   Mostly Cloudy
9:20 PM 39.2 °F 32.5 °F 39.2 °F 100% 29.86 in 6.2 mi West 10.4 mph - N/A   Scattered Clouds
9:50 PM 39.2 °F 32.5 °F 39.2 °F 100% 29.83 in 6.2 mi West 10.4 mph - N/A   Scattered Clouds
10:20 PM 39.2 °F 31.6 °F 39.2 °F 100% 29.83 in 6.2 mi West 12.7 mph - N/A   Mostly Cloudy
10:50 PM 39.2 °F 32.0 °F 39.2 °F 100% 29.83 in 6.2 mi West 11.5 mph - N/A   Mostly Cloudy
11:20 PM 39.2 °F 32.5 °F 39.2 °F 100% 29.80 in 6.2 mi West 10.4 mph - N/A   Mostly Cloudy
11:50 PM 41.0 °F 33.9 °F 41.0 °F 100% 29.80 in 6.2 mi West 12.7 mph - N/A   Mostly Cloudy